This demonstration page uses our WeatherBlox Daily Observations layout. Learn more.

Hourly Observations for June 21, 2018

Temp ( °F °C ) Dew Point ( °F °C ) Humidity (%) Winds ( mph kmh ) Pressure ( in mb ) Visibility ( mi km ) Precip ( " mm )
12:15 am 00:15 Partly Cloudy 60 15.6 58 14.5 93 93 W 7 11 29.97 1015 10 16.0934 0 0
12:35 am 00:35 Clear 60 15.8 58 14.3 91 91 WNW 8 13 29.97 1015 10 16.0934 0 0
12:55 am 00:55 Clear 60 15.7 58 14.2 91 91 WNW 9 15 29.97 1015 10 16.0934 0 0
1:15 am 01:15 Clear 60 15.3 57 14.1 93 93 NW 8 13 29.97 1015 10 16.0934 0 0
1:35 am 01:35 Clear 59 15.1 57 14 93 93 NW 8 13 29.97 1015 10 16.0934 0 0
1:55 am 01:55 Clear 59 15.1 57 14 93 93 WNW 8 13 29.97 1015 10 16.0934 0 0
2:15 am 02:15 Clear 59 15 57 13.8 93 93 WNW 7 11 29.97 1015 10 16.0934 0 0
2:35 am 02:35 Clear 58 14.7 57 13.7 94 94 W 9 15 29.94 1014 10 16.0934 0 0
2:55 am 02:55 Clear 58 14.6 56 13.5 93 93 WNW 8 13 29.94 1014 10 16.0934 0 0
3:15 am 03:15 Clear 58 14.6 56 13.4 93 93 WNW 8 13 29.94 1014 10 16.0934 0 0
3:35 am 03:35 Clear 58 14.5 56 13.2 92 92 WNW 9 15 29.94 1014 10 16.0934 0 0
3:55 am 03:55 Clear 58 14.3 56 13.2 93 93 WNW 9 15 29.94 1014 10 16.0934 0 0
4:15 am 04:15 Clear 58 14.5 55 13 91 91 WNW 8 13 29.94 1014 10 16.0934 0 0
4:35 am 04:35 Clear 57 14.1 55 13 93 93 WNW 8 13 29.94 1014 10 16.0934 0 0
4:55 am 04:55 Clear 57 14 55 13 94 94 WNW 9 15 29.94 1014 10 16.0934 0 0
5:15 am 05:15 Clear 57 14.1 56 13.1 94 94 WNW 8 13 29.94 1014 10 16.0934 0 0
5:35 am 05:35 Clear 58 14.3 56 13.3 94 94 WNW 9 15 29.94 1014 10 16.0934 0 0
5:55 am 05:55 Clear 58 14.5 56 13.5 94 94 WNW 8 13 29.94 1014 10 16.0934 0 0
6:15 am 06:15 Sunny 58 14.5 56 13.6 94 94 WNW 8 13 29.94 1014 10 16.0934 0 0
6:35 am 06:35 Sunny 58 14.5 56 13.6 94 94 WNW 10 17 29.94 1014 10 16.0934 0 0
6:55 am 06:55 Sunny 59 14.8 57 13.8 94 94 WNW 10 17 29.94 1014 10 16.0934 0 0
7:15 am 07:15 Sunny 60 15.5 57 14 91 91 WNW 10 17 29.94 1014 10 16.0934 0 0
7:35 am 07:35 Sunny 61 16 57 14.1 89 89 WNW 12 19 29.91 1013 10 16.0934 0 0
7:55 am 07:55 Sunny 62 16.7 58 14.4 86 86 WNW 13 20 29.91 1013 10 16.0934 0 0
8:15 am 08:15 Sunny 63 17.1 57 13.8 81 81 NW 14 22 29.91 1013 10 16.0934 0 0
8:35 am 08:35 Sunny 62 16.5 56 13.6 83 83 NW 13 20 29.94 1014 10 16.0934 0 0
8:55 am 08:55 Sunny 62 16.5 57 13.7 84 84 NW 13 20 29.91 1013 10 16.0934 0 0
9:15 am 09:15 Sunny 63 17.2 57 14.1 82 82 NW 15 24 29.91 1013 10 16.0934 0 0
9:35 am 09:35 Sunny 64 18 57 14 78 78 NW 13 20 29.94 1014 10 16.0934 0 0
9:55 am 09:55 Sunny 64 18 57 14 78 78 NW 10 17 29.94 1014 10 16.0934 0 0
10:15 am 10:15 Sunny 65 18.5 58 14.2 76 76 NW 12 19 29.91 1013 10 16.0934 0 0
10:35 am 10:35 Sunny 66 19.1 58 14.3 74 74 NW 14 22 29.91 1013 10 16.0934 0 0
10:55 am 10:55 Sunny 68 19.9 59 14.8 73 73 NW 12 19 29.88 1012 10 16.0934 0 0
11:15 am 11:15 Sunny 70 20.9 57 14.1 65 65 NNW 14 22 29.88 1012 10 16.0934 0 0
11:35 am 11:35 Sunny 72 22.1 57 14 60 60 NNW 16 26 29.88 1012 10 16.0934 0 0
11:55 am 11:55 Sunny 73 22.5 56 13.3 56 56 NW 20 31 29.88 1012 10 16.0934 0 0
12:15 pm 12:15 Partly Cloudy 73 22.5 55 12.8 54 54 NNW 22 35 29.88 1012 10 16.0934 0 0
12:35 pm 12:35 Mostly Cloudy 73 22.8 56 13.3 55 55 NNW 17 28 29.85 1011 10 16.0934 0 0
12:55 pm 12:55 Mostly Cloudy 74 23.1 56 13.2 54 54 NNW 17 28 29.85 1011 10 16.0934 0 0
1:15 pm 13:15 Partly Cloudy 74 23.5 56 13.4 53 53 N 18 30 29.85 1011 10 16.0934 0 0
1:35 pm 13:35 Partly Cloudy 75 23.7 55 13 51 51 N 20 31 29.85 1011 10 16.0934 0 0
1:55 pm 13:55 Partly Cloudy 74 23.6 55 13 52 52 N 21 33 29.85 1011 10 16.0934 0 0
2:15 pm 14:15 Partly Cloudy 75 24 56 13.2 51 51 N 21 33 29.85 1011 10 16.0934 0 0
2:35 pm 14:35 Mostly Cloudy 74 23.4 55 12.8 51 51 NNW 17 28 29.85 1011 10 16.0934 0 0
2:55 pm 14:55 Mostly Cloudy 76 24.5 56 13.5 50 50 N 16 26 29.85 1011 10 16.0934 0 0
3:15 pm 15:15 Mostly Cloudy 74 23.4 55 12.9 52 52 NNW 20 31 29.83 1010 10 16.0934 0 0
3:35 pm 15:35 Partly Cloudy 76 24.5 55 12.7 48 48 N 18 30 29.83 1010 10 16.0934 0 0
3:55 pm 15:55 Partly Cloudy 76 24.4 53 11.8 45 45 N 16 26 29.83 1010 10 16.0934 0 0
4:15 pm 16:15 Mostly Cloudy 76 24.6 54 12.1 46 46 NNW 18 30 29.83 1010 10 16.0934 0 0
4:35 pm 16:35 Mostly Cloudy 77 24.9 53 11.9 44 44 NNW 16 26 29.83 1010 10 16.0934 0 0
4:55 pm 16:55 Mostly Cloudy 77 24.9 55 12.7 47 47 N 16 26 29.83 1010 10 16.0934 0 0
5:15 pm 17:15 Cloudy 76 24.3 56 13.4 51 51 N 13 20 29.83 1010 10 16.0934 0 0
5:35 pm 17:35 Cloudy 75 23.7 55 12.9 51 51 N 15 24 29.83 1010 10 16.0934 0 0
5:55 pm 17:55 Partly Cloudy 76 24.7 55 12.8 48 48 N 13 20 29.83 1010 10 16.0934 0 0
6:15 pm 18:15 Partly Cloudy 76 24.5 54 12.3 47 47 N 13 20 29.83 1010 10 16.0934 0 0
6:35 pm 18:35 Partly Cloudy 76 24.5 55 12.8 48 48 N 14 22 29.83 1010 10 16.0934 0 0
6:55 pm 18:55 Partly Cloudy 75 24.1 56 13.2 51 51 N 12 19 29.83 1010 10 16.0934 0 0
7:15 pm 19:15 Sunny 74 23.2 58 14.3 57 57 NNE 13 20 29.83 1010 10 16.0934 0 0
7:35 pm 19:35 Sunny 73 23 57 13.8 56 56 NNE 16 26 29.83 1010 10 16.0934 0 0
7:55 pm 19:55 Sunny 72 22.3 56 13.3 57 57 NNE 12 19 29.85 1011 10 16.0934 0 0
8:15 pm 20:15 Sunny 71 21.5 60 15.5 69 69 NE 13 20 29.85 1011 10 16.0934 0 0
8:35 pm 20:35 Sunny 69 20.6 61 16.1 76 76 NE 8 13 29.85 1011 10 16.0934 0 0
8:55 pm 20:55 Sunny 67 19.5 60 15.6 78 78 NE 9 15 29.85 1011 10 16.0934 0 0
9:15 pm 21:15 Clear 65 18.5 60 15.6 83 83 NE 8 13 29.91 1013 10 16.0934 0 0
9:35 pm 21:35 Clear 64 17.5 60 15.8 90 90 NE 7 11 29.91 1013 10 16.0934 0 0
9:55 pm 21:55 Clear 62 16.9 60 15.8 93 93 NE 5 7 29.91 1013 10 16.0934 0 0
10:15 pm 22:15 Clear 62 16.6 60 15.4 93 93 NE 3 6 29.94 1014 10 16.0934 0 0
10:35 pm 22:35 Clear 61 16.3 59 14.9 91 91 Calm 29.94 1014 10 16.0934 0 0
10:55 pm 22:55 Clear 59 15.2 58 14.5 96 96 NNE 3 6 29.97 1015 10 16.0934 0 0
11:15 pm 23:15 Clear 60 15.5 58 14.5 94 94 N 7 11 29.97 1015 10 16.0934 0 0
11:35 pm 23:35 Clear 59 15.1 58 14.6 97 97 N 6 9 29.97 1015 10 16.0934 0 0
11:55 pm 23:55 Clear 60 15.5 58 14.3 93 93 N 6 9 29.97 1015 10 16.0934 0 0

Powered by AerisWeather